| time (UTC) | temp F | wind direction | speed MPH | gust MPH | rain 1hr in | rain 24hr in | rain mn in | humidity % | barometer mb |
| 20260505034604 | 61 | 238 | 5.0 | 12.0 | 0.00 | 0.00 | 0.00 | 71 | 1000.5 |
| 20260505034104 | 61 | 237 | 4.0 | 9.0 | 0.00 | 0.00 | 0.00 | 71 | 1000.5 |
| 20260505033604 | 61 | 250 | 2.0 | 6.0 | 0.00 | 0.00 | 0.00 | 71 | 1000.6 |
| 20260505033104 | 61 | 239 | 5.0 | 10.0 | 0.00 | 0.00 | 0.00 | 70 | 1000.7 |
| 20260505032604 | 61 | 243 | 4.0 | 9.0 | 0.00 | 0.00 | 0.00 | 70 | 1000.9 |
| 20260505032104 | 61 | 255 | 3.0 | 9.0 | 0.00 | 0.00 | 0.00 | 70 | 1000.9 |
| 20260505031604 | 61 | 251 | 3.0 | 9.0 | 0.00 | 0.00 | 0.00 | 69 | 1001.0 |
| 20260505030603 | 61 | 243 | 3.0 | 13.0 | 0.00 | 0.00 | 0.00 | 68 | 1001.2 |
| 20260505025603 | 61 | 249 | 5.0 | 13.0 | 0.00 | 0.00 | 0.00 | 66 | 1001.3 |
| 20260505025104 | 61 | 247 | 4.0 | 12.0 | 0.00 | 0.00 | 0.00 | 65 | 1001.3 |
| 20260505024604 | 61 | 259 | 4.0 | 13.0 | 0.00 | 0.00 | 0.00 | 64 | 1001.4 |
| 20260505024104 | 62 | 251 | 6.0 | 12.0 | 0.00 | 0.00 | 0.00 | 63 | 1001.4 |
| 20260505023603 | 61 | 252 | 5.0 | 12.0 | 0.00 | 0.00 | 0.00 | 63 | 1001.3 |
| 20260505023103 | 61 | 256 | 5.0 | 9.0 | 0.00 | 0.00 | 0.00 | 63 | 1001.2 |
| 20260505022604 | 61 | 255 | 4.0 | 14.0 | 0.00 | 0.00 | 0.00 | 63 | 1001.4 |
| 20260505022104 | 60 | 264 | 5.0 | 12.0 | 0.00 | 0.00 | 0.00 | 61 | 1001.4 |
| 20260505021604 | 60 | 247 | 4.0 | 9.0 | 0.00 | 0.00 | 0.00 | 60 | 1001.5 |
| 20260505021104 | 61 | 244 | 3.0 | 7.0 | 0.00 | 0.00 | 0.00 | 59 | 1001.3 |
| 20260505020604 | 61 | 238 | 3.0 | 6.0 | 0.00 | 0.00 | 0.00 | 59 | 1001.3 |
| 20260505020104 | 61 | 247 | 2.0 | 5.0 | 0.00 | 0.00 | 0.00 | 58 | 1001.2 |
| 20260505015604 | 61 | 240 | 2.0 | 3.0 | 0.00 | 0.00 | 0.00 | 58 | 1001.3 |
| 20260505015104 | 61 | 250 | 2.0 | 3.0 | 0.00 | 0.00 | 0.00 | 56 | 1001.2 |
| 20260505014604 | 62 | 233 | 2.0 | 7.0 | 0.00 | 0.00 | 0.00 | 56 | 1001.2 |
| 20260505013606 | 62 | 244 | 3.0 | 6.0 | 0.00 | 0.00 | 0.00 | 54 | 1001.3 |
| 20260505013103 | 62 | 242 | 2.0 | 3.0 | 0.00 | 0.00 | 0.00 | 54 | 1001.2 |
| 20260505012603 | 62 | 246 | 2.0 | 5.0 | 0.00 | 0.00 | 0.00 | 54 | 1001.3 |
| 20260505012105 | 63 | 250 | 3.0 | 7.0 | 0.00 | 0.00 | 0.00 | 53 | 1001.2 |
| 20260505011604 | 63 | 246 | 2.0 | 3.0 | 0.00 | 0.00 | 0.00 | 53 | 1001.2 |
| 20260505011105 | 63 | 246 | 2.0 | 3.0 | 0.00 | 0.00 | 0.00 | 52 | 1001.2 |
| 20260505010603 | 63 | 242 | 2.0 | 3.0 | 0.00 | 0.00 | 0.00 | 52 | 1001.2 |
| 20260505010104 | 63 | 260 | 3.0 | 12.0 | 0.00 | 0.00 | 0.00 | 51 | 1001.2 |
| 20260505004608 | 64 | 257 | 2.0 | 5.0 | 0.00 | 0.00 | 0.00 | 52 | 1001.1 |
| 20260505004104 | 64 | 244 | 2.0 | 7.0 | 0.00 | 0.00 | 0.00 | 51 | 1001.1 |
| 20260505003104 | 65 | 246 | 2.0 | 8.0 | 0.00 | 0.00 | 0.00 | 50 | 1001.1 |
| 20260505002104 | 66 | 284 | 2.0 | 3.0 | 0.00 | 0.00 | 0.00 | 49 | 1001.1 |
| 20260505001604 | 66 | 264 | 2.0 | 3.0 | 0.00 | 0.00 | 0.00 | 49 | 1001.1 |
| 20260505001105 | 66 | 266 | 3.0 | 9.0 | 0.00 | 0.00 | 0.00 | 48 | 1001.2 |
| 20260505000605 | 67 | 281 | 3.0 | 6.0 | 0.00 | 0.00 | 0.00 | 49 | 1001.2 |
| 20260505000105 | 67 | 290 | 2.0 | 6.0 | 0.00 | 0.00 | 0.00 | 49 | 1001.2 |
| 20260504235604 | 67 | 298 | 2.0 | 5.0 | 0.00 | 0.00 | 0.00 | 50 | 1001.2 |
| 20260504235104 | 68 | 281 | 3.0 | 12.0 | 0.00 | 0.00 | 0.00 | 49 | 1001.2 |
| 20260504234604 | 68 | 275 | 3.0 | 7.0 | 0.00 | 0.00 | 0.00 | 49 | 1001.2 |
| 20260504234104 | 68 | 275 | 3.0 | 9.0 | 0.00 | 0.00 | 0.00 | 48 | 1001.1 |
| 20260504233604 | 69 | 269 | 3.0 | 12.0 | 0.00 | 0.00 | 0.00 | 48 | 1001.2 |
| 20260504233104 | 69 | 290 | 5.0 | 14.0 | 0.00 | 0.00 | 0.00 | 48 | 1001.2 |
| 20260504232602 | 69 | 291 | 5.0 | 9.0 | 0.00 | 0.00 | 0.00 | 48 | 1001.2 |
| 20260504232103 | 69 | 280 | 5.0 | 16.0 | 0.00 | 0.00 | 0.00 | 48 | 1001.2 |
| 20260504231605 | 69 | 278 | 5.0 | 10.0 | 0.00 | 0.01 | 0.00 | 48 | 1001.3 |
| 20260504231103 | 69 | 264 | 5.0 | 8.0 | 0.00 | 0.01 | 0.00 | 48 | 1001.3 |
| 20260504230603 | 69 | 279 | 3.0 | 12.0 | 0.00 | 0.01 | 0.00 | 49 | 1001.4 |
| 20260504230105 | 69 | 266 | 5.0 | 16.0 | 0.00 | 0.01 | 0.00 | 47 | 1001.4 |
| 20260504225616 | 69 | 275 | 6.0 | 16.0 | 0.00 | 0.01 | 0.00 | 47 | 1001.4 |
| 20260504225102 | 69 | 267 | 5.0 | 13.0 | 0.00 | 0.01 | 0.00 | 47 | 1001.5 |
| 20260504224602 | 70 | 296 | 5.0 | 17.0 | 0.00 | 0.01 | 0.00 | 46 | 1001.5 |
| 20260504224102 | 70 | 285 | 5.0 | 10.0 | 0.00 | 0.01 | 0.00 | 46 | 1001.5 |
| 20260504223602 | 70 | 290 | 5.0 | 17.0 | 0.00 | 0.01 | 0.00 | 45 | 1001.5 |
| 20260504223102 | 70 | 292 | 7.0 | 17.0 | 0.00 | 0.02 | 0.00 | 44 | 1001.6 |
| 20260504222602 | 70 | 294 | 7.0 | 14.0 | 0.00 | 0.02 | 0.00 | 42 | 1001.6 |
| 20260504222102 | 71 | 265 | 8.0 | 20.0 | 0.00 | 0.02 | 0.00 | 42 | 1001.5 |
| 20260504221602 | 71 | 288 | 9.0 | 15.0 | 0.00 | 0.02 | 0.00 | 41 | 1001.6 |
| 20260504221102 | 71 | 293 | 7.0 | 17.0 | 0.00 | 0.02 | 0.00 | 41 | 1001.5 |
| 20260504220602 | 71 | 275 | 7.0 | 14.0 | 0.00 | 0.02 | 0.00 | 41 | 1001.5 |
| 20260504215603 | 71 | 286 | 8.0 | 17.0 | 0.00 | 0.02 | 0.00 | 41 | 1001.6 |
| 20260504215103 | 71 | 285 | 12.0 | 26.0 | 0.00 | 0.02 | 0.00 | 40 | 1001.6 |
| 20260504214603 | 71 | 269 | 8.0 | 14.0 | 0.00 | 0.02 | 0.00 | 40 | 1001.6 |
| 20260504214102 | 72 | 299 | 10.0 | 22.0 | 0.00 | 0.02 | 0.00 | 41 | 1001.7 |
| 20260504213602 | 72 | 287 | 8.0 | 17.0 | 0.00 | 0.02 | 0.00 | 41 | 1001.6 |
| 20260504213103 | 72 | 259 | 10.0 | 20.0 | 0.00 | 0.02 | 0.00 | 41 | 1001.5 |
| 20260504212602 | 72 | 283 | 5.0 | 15.0 | 0.00 | 0.02 | 0.00 | 43 | 1001.5 |
| 20260504212103 | 72 | 276 | 6.0 | 18.0 | 0.00 | 0.02 | 0.00 | 45 | 1001.4 |
| 20260504211602 | 72 | 284 | 13.0 | 21.0 | 0.00 | 0.02 | 0.00 | 44 | 1001.5 |
| 20260504211103 | 72 | 289 | 7.0 | 16.0 | 0.00 | 0.02 | 0.00 | 44 | 1001.5 |
| 20260504210602 | 72 | 281 | 8.0 | 17.0 | 0.00 | 0.02 | 0.00 | 43 | 1001.5 |
| 20260504205603 | 72 | 286 | 8.0 | 15.0 | 0.00 | 0.02 | 0.00 | 44 | 1001.5 |
| 20260504205103 | 72 | 256 | 5.0 | 20.0 | 0.00 | 0.02 | 0.00 | 45 | 1001.7 |
| 20260504204602 | 71 | 268 | 6.0 | 18.0 | 0.00 | 0.02 | 0.00 | 45 | 1001.7 |
| 20260504204102 | 71 | 272 | 10.0 | 26.0 | 0.00 | 0.02 | 0.00 | 46 | 1001.7 |
| 20260504203603 | 72 | 270 | 7.0 | 22.0 | 0.00 | 0.02 | 0.00 | 44 | 1001.8 |
| 20260504203103 | 72 | 280 | 9.0 | 16.0 | 0.00 | 0.02 | 0.00 | 45 | 1001.9 |
| 20260504202602 | 71 | 294 | 7.0 | 22.0 | 0.00 | 0.02 | 0.00 | 46 | 1001.8 |
| 20260504202103 | 72 | 262 | 7.0 | 13.0 | 0.00 | 0.02 | 0.00 | 44 | 1001.9 |
| 20260504201602 | 72 | 290 | 9.0 | 20.0 | 0.00 | 0.02 | 0.00 | 46 | 1001.9 |
| 20260504201103 | 72 | 282 | 8.0 | 18.0 | 0.00 | 0.02 | 0.00 | 44 | 1002.0 |
| 20260504200602 | 72 | 257 | 5.0 | 13.0 | 0.00 | 0.02 | 0.00 | 47 | 1002.0 |
| 20260504195603 | 72 | 270 | 8.0 | 16.0 | 0.00 | 0.02 | 0.00 | 45 | 1002.1 |
| 20260504195102 | 72 | 284 | 6.0 | 13.0 | 0.00 | 0.02 | 0.00 | 47 | 1002.2 |
| 20260504194603 | 72 | 264 | 9.0 | 15.0 | 0.00 | 0.02 | 0.00 | 46 | 1002.3 |
| 20260504194102 | 72 | 270 | 7.0 | 14.0 | 0.00 | 0.02 | 0.00 | 49 | 1002.4 |
| 20260504193603 | 71 | 277 | 9.0 | 18.0 | 0.00 | 0.02 | 0.00 | 48 | 1002.4 |
| 20260504193103 | 71 | 280 | 6.0 | 16.0 | 0.00 | 0.02 | 0.00 | 48 | 1002.6 |
| 20260504192603 | 71 | 259 | 10.0 | 23.0 | 0.00 | 0.02 | 0.00 | 48 | 1002.7 |
| 20260504191103 | 71 | 278 | 6.0 | 18.0 | 0.00 | 0.02 | 0.00 | 52 | 1002.9 |
| 20260504190602 | 70 | 281 | 6.0 | 14.0 | 0.00 | 0.02 | 0.00 | 51 | 1003.0 |
| 20260504185603 | 70 | 276 | 8.0 | 16.0 | 0.00 | 0.02 | 0.00 | 53 | 1003.1 |
| 20260504185103 | 70 | 254 | 7.0 | 22.0 | 0.00 | 0.02 | 0.00 | 54 | 1003.2 |
| 20260504184602 | 70 | 252 | 9.0 | 21.0 | 0.00 | 0.02 | 0.00 | 51 | 1003.2 |
| 20260504184102 | 70 | 284 | 8.0 | 18.0 | 0.00 | 0.02 | 0.00 | 56 | 1003.3 |
| 20260504183602 | 70 | 276 | 10.0 | 20.0 | 0.00 | 0.02 | 0.00 | 53 | 1003.4 |
| 20260504183102 | 69 | 286 | 10.0 | 21.0 | 0.00 | 0.02 | 0.00 | 52 | 1003.3 |
| 20260504182602 | 70 | 268 | 5.0 | 20.0 | 0.00 | 0.02 | 0.00 | 55 | 1003.5 |
| 20260504182103 | 69 | 255 | 7.0 | 14.0 | 0.00 | 0.02 | 0.00 | 55 | 1003.5 |
| 20260504181603 | 69 | 278 | 11.0 | 18.0 | 0.00 | 0.02 | 0.00 | 55 | 1003.6 |
| 20260504181103 | 68 | 282 | 8.0 | 22.0 | 0.00 | 0.02 | 0.00 | 56 | 1003.5 |
| 20260504180103 | 68 | 270 | 9.0 | 17.0 | 0.00 | 0.02 | 0.00 | 55 | 1003.7 |
| 20260504175604 | 68 | 274 | 7.0 | 16.0 | 0.00 | 0.02 | 0.00 | 57 | 1003.8 |
| 20260504174603 | 66 | 270 | 8.0 | 20.0 | 0.00 | 0.02 | 0.00 | 56 | 1003.9 |
| 20260504174103 | 66 | 285 | 11.0 | 20.0 | 0.00 | 0.02 | 0.00 | 59 | 1004.0 |
| 20260504173602 | 66 | 281 | 9.0 | 20.0 | 0.00 | 0.02 | 0.00 | 57 | 1004.2 |
| 20260504173102 | 66 | 281 | 9.0 | 16.0 | 0.00 | 0.02 | 0.00 | 57 | 1004.1 |
| 20260504172602 | 66 | 254 | 6.0 | 20.0 | 0.00 | 0.02 | 0.00 | 58 | 1004.1 |
| 20260504172102 | 66 | 287 | 12.0 | 23.0 | 0.00 | 0.02 | 0.00 | 57 | 1004.2 |
| 20260504171103 | 66 | 282 | 6.0 | 15.0 | 0.00 | 0.02 | 0.00 | 58 | 1004.2 |
| 20260504170603 | 66 | 250 | 6.0 | 15.0 | 0.00 | 0.02 | 0.00 | 57 | 1004.3 |
| 20260504151103 | 63 | 278 | 9.0 | 17.0 | 0.00 | 0.02 | 0.00 | 60 | 1005.1 |
| 20260504150603 | 62 | 278 | 12.0 | 20.0 | 0.00 | 0.02 | 0.00 | 57 | 1005.1 |
| 20260504150103 | 63 | 291 | 9.0 | 20.0 | 0.00 | 0.02 | 0.00 | 57 | 1005.1 |
| 20260504140603 | 61 | 278 | 7.0 | 14.0 | 0.00 | 0.02 | 0.00 | 58 | 1005.1 |
| 20260504130603 | 58 | 278 | 7.0 | 20.0 | 0.00 | 0.02 | 0.00 | 61 | 1005.5 |
| 20260504130103 | 58 | 265 | 9.0 | 17.0 | 0.00 | 0.02 | 0.00 | 60 | 1005.6 |
| 20260504081102 | 49 | 248 | 5.0 | 14.0 | 0.00 | 0.03 | 0.00 | 72 | 1006.3 |
| 20260504080603 | 49 | 264 | 5.0 | 12.0 | 0.00 | 0.03 | 0.00 | 72 | 1006.4 |
| 20260504050603 | 52 | 265 | 6.0 | 12.0 | 0.00 | 0.03 | 0.00 | 65 | 1007.9 |
| 20260504050103 | 53 | 269 | 4.0 | 16.0 | 0.00 | 0.03 | 0.00 | 63 | 1007.8 |
| 20260504045603 | 53 | 259 | 6.0 | 12.0 | 0.00 | 0.03 | 0.00 | 62 | 1007.9 |
| 20260504044602 | 53 | 270 | 6.0 | 16.0 | 0.00 | 0.03 | 0.00 | 60 | 1007.9 |
| 20260504044103 | 54 | 261 | 6.0 | 13.0 | 0.00 | 0.03 | 0.00 | 60 | 1007.9 |
| 20260504043603 | 54 | 270 | 5.0 | 23.0 | 0.00 | 0.03 | 0.00 | 59 | 1007.9 |
| 20260504043103 | 54 | 262 | 5.0 | 15.0 | 0.00 | 0.03 | 0.00 | 59 | 1007.9 |
| 20260504042603 | 54 | 277 | 5.0 | 13.0 | 0.00 | 0.03 | 0.00 | 59 | 1007.9 |
| 20260504042103 | 54 | 285 | 6.0 | 13.0 | 0.00 | 0.03 | 0.00 | 59 | 1007.9 |
| 20260504041603 | 54 | 273 | 9.0 | 15.0 | 0.00 | 0.03 | 0.00 | 59 | 1007.9 |
| 20260504041102 | 54 | 280 | 7.0 | 17.0 | 0.00 | 0.03 | 0.00 | 59 | 1007.9 |
| 20260504040602 | 54 | 293 | 7.0 | 16.0 | 0.00 | 0.03 | 0.00 | 59 | 1007.9 |
| 20260504035603 | 54 | 289 | 9.0 | 17.0 | 0.00 | 0.03 | 0.03 | 59 | 1008.0 |
| 20260504035103 | 54 | 299 | 6.0 | 17.0 | 0.00 | 0.03 | 0.03 | 59 | 1008.1 |